| time (UTC) | temp C | wind direction | speed KPH | gust KPH | rain 1hr cm | rain 24hr cm | rain mn cm | humidity % | barometer mb |
| 20260510162757 | -17 | 47 | 3.2 | 4.8 | 0.00 | 0.00 | 0.00 | 33 | 1003.9 |
| 20260510162257 | -17 | 271 | 0.0 | 1.6 | 0.00 | 0.00 | 0.00 | 30 | 1004.0 |
| 20260510161756 | -17 | 208 | 0.0 | 0.0 | 0.00 | 0.00 | 0.00 | 26 | 1004.1 |
| 20260510161256 | -17 | 94 | 3.2 | 4.8 | 0.00 | 0.00 | 0.00 | 28 | 1004.1 |
| 20260510160756 | -17 | 167 | 1.6 | 1.6 | 0.00 | 0.00 | 0.00 | 32 | 1004.1 |
| 20260510160255 | -17 | 193 | 0.0 | 0.0 | 0.00 | 0.00 | 0.00 | 35 | 1004.1 |
| 20260510155755 | -17 | 136 | 0.0 | 0.0 | 0.00 | 0.00 | 0.00 | 34 | 1004.1 |
| 20260510155255 | -17 | 221 | 3.2 | 4.8 | 0.00 | 0.00 | 0.00 | 35 | 1004.2 |
| 20260510154754 | -17 | 102 | 1.6 | 3.2 | 0.00 | 0.00 | 0.00 | 34 | 1004.3 |
| 20260510154254 | -17 | 105 | 0.0 | 1.6 | 0.00 | 0.00 | 0.00 | 37 | 1004.3 |
| 20260510153754 | -17 | 97 | 0.0 | 0.0 | 0.00 | 0.00 | 0.00 | 35 | 1004.4 |
| 20260510153253 | -17 | 347 | 1.6 | 3.2 | 0.00 | 0.00 | 0.00 | 34 | 1004.3 |
| 20260510152753 | -17 | 130 | 1.6 | 1.6 | 0.00 | 0.00 | 0.00 | 37 | 1004.4 |
| 20260510152252 | -17 | 212 | 1.6 | 1.6 | 0.00 | 0.00 | 0.00 | 39 | 1004.3 |
| 20260510151752 | -17 | 154 | 3.2 | 4.8 | 0.00 | 0.00 | 0.00 | 45 | 1004.4 |
| 20260510151251 | -17 | 150 | 0.0 | 0.0 | 0.00 | 0.00 | 0.00 | 49 | 1004.4 |
| 20260510150751 | -17 | 157 | 0.0 | 0.0 | 0.00 | 0.00 | 0.00 | 49 | 1004.1 |
| 20260510150251 | -17 | 157 | 0.0 | 0.0 | 0.00 | 0.00 | 0.00 | 52 | 1004.3 |
| 20260510145750 | -17 | 146 | 0.0 | 0.0 | 0.00 | 0.00 | 0.00 | 51 | 1004.2 |
| 20260510145250 | -17 | 163 | 0.0 | 0.0 | 0.00 | 0.00 | 0.00 | 51 | 1004.2 |
| 20260510144749 | -17 | 155 | 0.0 | 0.0 | 0.00 | 0.00 | 0.00 | 52 | 1004.2 |
| 20260510144249 | -17 | 138 | 0.0 | 0.0 | 0.00 | 0.00 | 0.00 | 53 | 1004.2 |
| 20260510143749 | -17 | 90 | 1.6 | 1.6 | 0.00 | 0.00 | 0.00 | 56 | 1004.2 |
| 20260510143248 | -17 | 161 | 0.0 | 1.6 | 0.00 | 0.00 | 0.00 | 60 | 1004.1 |
| 20260510142748 | -17 | 173 | 1.6 | 3.2 | 0.00 | 0.00 | 0.00 | 58 | 1004.3 |
| 20260510142246 | -17 | 351 | 0.0 | 1.6 | 0.00 | 0.00 | 0.00 | 59 | 1004.4 |
| 20260510141745 | -17 | 181 | 0.0 | 0.0 | 0.00 | 0.00 | 0.00 | 60 | 1004.2 |
| 20260510141245 | -17 | 207 | 0.0 | 0.0 | 0.00 | 0.00 | 0.00 | 62 | 1004.2 |
| 20260510140745 | -17 | 204 | 0.0 | 0.0 | 0.00 | 0.00 | 0.00 | 63 | 1004.3 |
| 20260510135744 | -17 | 187 | 0.0 | 0.0 | 0.00 | 0.00 | 0.00 | 65 | 1004.3 |
| 20260510135244 | -17 | 81 | 3.2 | 3.2 | 0.00 | 0.00 | 0.00 | 66 | 1004.4 |
| 20260510134743 | -17 | 119 | 0.0 | 0.0 | 0.00 | 0.00 | 0.00 | 68 | 1004.4 |
| 20260510134243 | -17 | 303 | 1.6 | 3.2 | 0.00 | 0.00 | 0.00 | 68 | 1004.4 |
| 20260510133742 | -17 | 116 | 0.0 | 0.0 | 0.00 | 0.00 | 0.00 | 72 | 1004.4 |
| 20260510133242 | -17 | 77 | 0.0 | 0.0 | 0.00 | 0.00 | 0.00 | 75 | 1004.3 |
| 20260510132741 | -17 | 71 | 0.0 | 1.6 | 0.00 | 0.00 | 0.00 | 76 | 1004.3 |
| 20260510132240 | -17 | 76 | 0.0 | 0.0 | 0.00 | 0.00 | 0.00 | 75 | 1004.2 |
| 20260510131740 | -17 | 61 | 0.0 | 1.6 | 0.00 | 0.00 | 0.00 | 78 | 1004.3 |
| 20260510131240 | -17 | 118 | 0.0 | 0.0 | 0.00 | 0.00 | 0.00 | 80 | 1004.2 |
| 20260510130739 | -17 | 135 | 0.0 | 0.0 | 0.00 | 0.00 | 0.00 | 85 | 1004.3 |
| 20260510130239 | -17 | 136 | 0.0 | 0.0 | 0.00 | 0.00 | 0.00 | 85 | 1004.2 |
| 20260510125738 | -17 | 136 | 0.0 | 0.0 | 0.00 | 0.00 | 0.00 | 88 | 1004.0 |
| 20260510125237 | -17 | 136 | 0.0 | 0.0 | 0.00 | 0.00 | 0.00 | 89 | 1003.9 |
| 20260510124737 | -17 | 135 | 0.0 | 0.0 | 0.00 | 0.00 | 0.00 | 91 | 1004.0 |
| 20260510124237 | -17 | 158 | 0.0 | 0.0 | 0.00 | 0.00 | 0.00 | 92 | 1003.9 |
| 20260510123736 | -17 | 157 | 0.0 | 0.0 | 0.00 | 0.00 | 0.00 | 94 | 1003.9 |
| 20260510123236 | -17 | 157 | 0.0 | 0.0 | 0.00 | 0.00 | 0.00 | 96 | 1003.7 |
| 20260510122735 | -17 | 157 | 0.0 | 0.0 | 0.00 | 0.00 | 0.00 | 96 | 1003.7 |
| 20260510122235 | -17 | 157 | 0.0 | 0.0 | 0.00 | 0.00 | 0.00 | 97 | 1003.8 |
| 20260510121735 | -17 | 157 | 0.0 | 0.0 | 0.00 | 0.00 | 0.00 | 98 | 1003.8 |
| 20260510121234 | -17 | 157 | 0.0 | 0.0 | 0.00 | 0.00 | 0.00 | 98 | 1003.8 |
| 20260510120734 | -17 | 157 | 0.0 | 0.0 | 0.00 | 0.00 | 0.00 | 98 | 1003.5 |
| 20260510120233 | -17 | 157 | 0.0 | 0.0 | 0.00 | 0.00 | 0.00 | 98 | 1003.6 |
| 20260510115732 | -17 | 157 | 0.0 | 0.0 | 0.00 | 0.00 | 0.00 | 98 | 1003.6 |
| 20260510115232 | -17 | 157 | 0.0 | 0.0 | 0.00 | 0.00 | 0.00 | 98 | 1003.6 |
| 20260510114731 | -17 | 157 | 0.0 | 0.0 | 0.00 | 0.00 | 0.00 | 98 | 1003.4 |
| 20260510114231 | -17 | 157 | 0.0 | 0.0 | 0.00 | 0.00 | 0.00 | 98 | 1003.6 |
| 20260510113731 | -17 | 157 | 0.0 | 0.0 | 0.00 | 0.00 | 0.00 | 98 | 1003.3 |
| 20260510113230 | -17 | 157 | 0.0 | 0.0 | 0.00 | 0.00 | 0.00 | 98 | 1003.3 |
| 20260510112730 | -17 | 157 | 0.0 | 0.0 | 0.00 | 0.00 | 0.00 | 98 | 1003.1 |
| 20260510112229 | -17 | 157 | 0.0 | 0.0 | 0.00 | 0.00 | 0.00 | 98 | 1003.0 |
| 20260510111729 | -17 | 157 | 0.0 | 0.0 | 0.00 | 0.00 | 0.00 | 98 | 1003.1 |
| 20260510111228 | -17 | 157 | 0.0 | 0.0 | 0.00 | 0.00 | 0.00 | 98 | 1003.0 |
| 20260510110728 | -17 | 157 | 0.0 | 0.0 | 0.00 | 0.00 | 0.00 | 98 | 1002.9 |
| 20260510110227 | -17 | 157 | 0.0 | 0.0 | 0.00 | 0.00 | 0.00 | 98 | 1003.0 |
| 20260510105727 | -17 | 157 | 0.0 | 0.0 | 0.00 | 0.00 | 0.00 | 98 | 1002.7 |
| 20260510105226 | -17 | 157 | 0.0 | 0.0 | 0.00 | 0.00 | 0.00 | 98 | 1002.6 |
| 20260510104726 | -17 | 157 | 0.0 | 0.0 | 0.00 | 0.00 | 0.00 | 98 | 1002.5 |
| 20260510104225 | -17 | 157 | 0.0 | 0.0 | 0.00 | 0.00 | 0.00 | 98 | 1002.7 |
| 20260510103725 | -17 | 157 | 0.0 | 0.0 | 0.00 | 0.00 | 0.00 | 98 | 1002.6 |
| 20260510103225 | -17 | 157 | 0.0 | 0.0 | 0.00 | 0.00 | 0.00 | 98 | 1002.5 |
| 20260510102724 | -17 | 157 | 0.0 | 0.0 | 0.00 | 0.00 | 0.00 | 98 | 1002.4 |
| 20260510102224 | -17 | 157 | 0.0 | 0.0 | 0.00 | 0.00 | 0.00 | 98 | 1002.3 |
| 20260510101723 | -17 | 157 | 0.0 | 0.0 | 0.00 | 0.00 | 0.00 | 98 | 1002.1 |
| 20260510101223 | -17 | 157 | 0.0 | 0.0 | 0.00 | 0.00 | 0.00 | 98 | 1001.9 |
| 20260510100722 | -17 | 157 | 0.0 | 0.0 | 0.00 | 0.00 | 0.00 | 98 | 1002.0 |
| 20260510100222 | -17 | 157 | 0.0 | 0.0 | 0.00 | 0.00 | 0.00 | 97 | 1001.7 |
| 20260510095722 | -17 | 157 | 0.0 | 0.0 | 0.00 | 0.00 | 0.00 | 97 | 1001.8 |
| 20260510095221 | -17 | 157 | 0.0 | 0.0 | 0.00 | 0.00 | 0.00 | 97 | 1001.7 |
| 20260510094720 | -17 | 157 | 0.0 | 0.0 | 0.00 | 0.00 | 0.00 | 97 | 1001.7 |
| 20260510094220 | -17 | 157 | 0.0 | 0.0 | 0.00 | 0.00 | 0.00 | 97 | 1001.4 |
| 20260510093720 | -17 | 157 | 0.0 | 0.0 | 0.00 | 0.00 | 0.00 | 97 | 1001.5 |
| 20260510093219 | -17 | 157 | 0.0 | 0.0 | 0.00 | 0.00 | 0.00 | 97 | 1001.5 |
| 20260510092719 | -17 | 157 | 0.0 | 0.0 | 0.00 | 0.00 | 0.00 | 97 | 1001.6 |
| 20260510092219 | -17 | 157 | 0.0 | 0.0 | 0.00 | 0.00 | 0.00 | 97 | 1001.4 |
| 20260510091718 | -17 | 157 | 0.0 | 0.0 | 0.00 | 0.00 | 0.00 | 97 | 1001.5 |
| 20260510091218 | -17 | 157 | 0.0 | 0.0 | 0.00 | 0.00 | 0.00 | 97 | 1001.4 |
| 20260510090717 | -17 | 157 | 0.0 | 0.0 | 0.00 | 0.00 | 0.00 | 97 | 1001.3 |
| 20260510090217 | -17 | 157 | 0.0 | 0.0 | 0.00 | 0.00 | 0.00 | 97 | 1001.2 |
| 20260510085717 | -17 | 157 | 0.0 | 0.0 | 0.00 | 0.00 | 0.00 | 97 | 1001.3 |
| 20260510085216 | -17 | 157 | 0.0 | 0.0 | 0.00 | 0.00 | 0.00 | 97 | 1001.3 |
| 20260510084716 | -17 | 157 | 0.0 | 0.0 | 0.00 | 0.00 | 0.00 | 97 | 1001.3 |
| 20260510084215 | -17 | 157 | 0.0 | 0.0 | 0.00 | 0.00 | 0.00 | 97 | 1001.1 |
| 20260510083715 | -17 | 157 | 0.0 | 0.0 | 0.00 | 0.00 | 0.00 | 97 | 1001.3 |
| 20260510083215 | -17 | 157 | 0.0 | 0.0 | 0.00 | 0.00 | 0.00 | 97 | 1001.0 |
| 20260510082714 | -17 | 157 | 0.0 | 0.0 | 0.00 | 0.00 | 0.00 | 97 | 1001.1 |
| 20260510082214 | -17 | 157 | 0.0 | 0.0 | 0.00 | 0.00 | 0.00 | 97 | 1000.9 |
| 20260510081714 | -17 | 157 | 0.0 | 0.0 | 0.00 | 0.00 | 0.00 | 97 | 1001.2 |
| 20260510081213 | -17 | 157 | 0.0 | 0.0 | 0.00 | 0.00 | 0.00 | 97 | 1001.1 |
| 20260510080712 | -17 | 157 | 0.0 | 0.0 | 0.00 | 0.00 | 0.00 | 97 | 1000.8 |
| 20260510080212 | -17 | 157 | 0.0 | 0.0 | 0.00 | 0.00 | 0.00 | 97 | 1001.0 |
| 20260510075711 | -17 | 157 | 0.0 | 0.0 | 0.00 | 0.00 | 0.00 | 97 | 1001.1 |
| 20260510075211 | -17 | 157 | 0.0 | 0.0 | 0.00 | 0.00 | 0.00 | 97 | 1001.0 |
| 20260510074711 | -17 | 157 | 0.0 | 0.0 | 0.00 | 0.00 | 0.00 | 97 | 1001.0 |
| 20260510074210 | -17 | 157 | 0.0 | 0.0 | 0.00 | 0.00 | 0.00 | 97 | 1000.9 |
| 20260510073710 | -17 | 157 | 0.0 | 0.0 | 0.00 | 0.00 | 0.00 | 97 | 1000.9 |
| 20260510073209 | -17 | 157 | 0.0 | 0.0 | 0.00 | 0.00 | 0.00 | 97 | 1000.8 |
| 20260510072708 | -17 | 157 | 0.0 | 0.0 | 0.00 | 0.00 | 0.00 | 97 | 1000.7 |
| 20260510072208 | -17 | 157 | 0.0 | 0.0 | 0.00 | 0.00 | 0.00 | 97 | 1000.6 |
| 20260510071708 | -17 | 157 | 0.0 | 0.0 | 0.00 | 0.00 | 0.00 | 97 | 1000.7 |
| 20260510071207 | -17 | 157 | 0.0 | 0.0 | 0.00 | 0.00 | 0.00 | 97 | 1000.7 |
| 20260510070707 | -17 | 157 | 0.0 | 0.0 | 0.00 | 0.00 | 0.00 | 97 | 1000.7 |
| 20260510070150 | -17 | 157 | 0.0 | 0.0 | 0.00 | 0.00 | 0.00 | 97 | 1000.8 |
| 20260510065639 | -17 | 157 | 0.0 | 0.0 | 0.00 | 0.00 | 0.00 | 97 | 1000.8 |
| 20260510065139 | -17 | 157 | 0.0 | 0.0 | 0.00 | 0.00 | 0.00 | 97 | 1001.0 |
| 20260510064638 | -17 | 157 | 0.0 | 0.0 | 0.00 | 0.00 | 0.00 | 97 | 1000.9 |
| 20260510064138 | -17 | 157 | 0.0 | 0.0 | 0.00 | 0.00 | 0.00 | 97 | 1000.9 |
| 20260510063633 | -17 | 157 | 0.0 | 0.0 | 0.00 | 0.00 | 0.00 | 96 | 1000.7 |
| 20260510063132 | -17 | 157 | 0.0 | 0.0 | 0.00 | 0.00 | 0.00 | 97 | 1000.8 |
| 20260510062632 | -17 | 157 | 0.0 | 0.0 | 0.00 | 0.00 | 0.00 | 96 | 1000.6 |
| 20260510062131 | -17 | 157 | 0.0 | 0.0 | 0.00 | 0.00 | 0.00 | 96 | 1000.4 |
| 20260510061631 | -17 | 157 | 0.0 | 0.0 | 0.00 | 0.00 | 0.00 | 96 | 1000.5 |
| 20260510061130 | -17 | 157 | 0.0 | 0.0 | 0.00 | 0.00 | 0.00 | 96 | 1000.5 |
| 20260510060630 | -17 | 157 | 0.0 | 0.0 | 0.00 | 0.00 | 0.00 | 96 | 1000.6 |
| 20260510060129 | -17 | 157 | 0.0 | 0.0 | 0.00 | 0.00 | 0.00 | 96 | 1000.8 |
| 20260510055629 | -17 | 157 | 0.0 | 0.0 | 0.00 | 0.00 | 0.00 | 96 | 1000.9 |
| 20260510055128 | -17 | 157 | 0.0 | 0.0 | 0.00 | 0.00 | 0.00 | 96 | 1001.1 |
| 20260510054628 | -17 | 157 | 0.0 | 0.0 | 0.00 | 0.00 | 0.00 | 96 | 1001.1 |
| 20260510054127 | -17 | 157 | 0.0 | 0.0 | 0.00 | 0.00 | 0.00 | 96 | 1001.1 |
| 20260510053627 | -17 | 157 | 0.0 | 0.0 | 0.00 | 0.00 | 0.00 | 96 | 1000.9 |
| 20260510053126 | -17 | 157 | 0.0 | 0.0 | 0.00 | 0.00 | 0.00 | 96 | 1001.2 |
| 20260510052626 | -17 | 157 | 0.0 | 0.0 | 0.00 | 0.00 | 0.00 | 96 | 1000.9 |
| 20260510052125 | -17 | 157 | 0.0 | 0.0 | 0.00 | 0.00 | 0.00 | 96 | 1001.2 |
| 20260510051624 | -17 | 157 | 0.0 | 0.0 | 0.00 | 0.00 | 0.00 | 96 | 1001.2 |
| 20260510051119 | -17 | 157 | 0.0 | 0.0 | 0.00 | 0.00 | 0.00 | 96 | 1001.2 |
| 20260510050619 | -17 | 157 | 0.0 | 0.0 | 0.00 | 0.00 | 0.00 | 96 | 1001.3 |
| 20260510050118 | -17 | 157 | 0.0 | 0.0 | 0.00 | 0.00 | 0.00 | 96 | 1001.1 |
| 20260510045618 | -17 | 157 | 0.0 | 0.0 | 0.00 | 0.00 | 0.00 | 96 | 1001.2 |
| 20260510045118 | -17 | 157 | 0.0 | 0.0 | 0.00 | 0.00 | 0.00 | 95 | 1001.2 |
| 20260510044617 | -17 | 157 | 0.0 | 0.0 | 0.00 | 0.00 | 0.00 | 95 | 1001.4 |
| 20260510044117 | -17 | 157 | 0.0 | 0.0 | 0.00 | 0.00 | 0.00 | 95 | 1001.5 |
| 20260510043616 | -17 | 157 | 0.0 | 0.0 | 0.00 | 0.00 | 0.00 | 95 | 1001.6 |
| 20260510043116 | -17 | 157 | 0.0 | 0.0 | 0.00 | 0.00 | 0.00 | 95 | 1001.2 |
| 20260510042616 | -17 | 157 | 0.0 | 0.0 | 0.00 | 0.00 | 0.00 | 95 | 1001.4 |
| 20260510042115 | -17 | 157 | 0.0 | 0.0 | 0.00 | 0.00 | 0.00 | 95 | 1001.3 |
| 20260510041615 | -17 | 157 | 0.0 | 0.0 | 0.00 | 0.00 | 0.00 | 95 | 1001.3 |
| 20260510041114 | -17 | 157 | 0.0 | 0.0 | 0.00 | 0.00 | 0.00 | 95 | 1001.3 |
| 20260510040614 | -17 | 157 | 0.0 | 0.0 | 0.00 | 0.00 | 0.00 | 94 | 1001.3 |
| 20260510040114 | -17 | 157 | 0.0 | 0.0 | 0.00 | 0.00 | 0.00 | 95 | 1001.4 |
| 20260510035613 | -17 | 157 | 0.0 | 0.0 | 0.00 | 0.00 | 0.00 | 94 | 1001.2 |
| 20260510035113 | -17 | 157 | 0.0 | 0.0 | 0.00 | 0.00 | 0.00 | 94 | 1001.0 |
| 20260510034613 | -17 | 157 | 0.0 | 0.0 | 0.00 | 0.00 | 0.00 | 94 | 1001.0 |
| 20260510034112 | -17 | 157 | 0.0 | 0.0 | 0.00 | 0.00 | 0.00 | 94 | 1001.2 |
| 20260510033612 | -17 | 157 | 0.0 | 0.0 | 0.00 | 0.00 | 0.00 | 94 | 1001.0 |
| 20260510033111 | -17 | 157 | 0.0 | 0.0 | 0.00 | 0.00 | 0.00 | 94 | 1001.0 |
| 20260510032611 | -17 | 157 | 0.0 | 0.0 | 0.00 | 0.00 | 0.00 | 93 | 1001.2 |
| 20260510032110 | -17 | 157 | 0.0 | 0.0 | 0.00 | 0.00 | 0.00 | 93 | 1001.1 |
| 20260510031610 | -17 | 157 | 0.0 | 0.0 | 0.00 | 0.00 | 0.00 | 93 | 1001.0 |
| 20260510031110 | -17 | 157 | 0.0 | 0.0 | 0.00 | 0.00 | 0.00 | 93 | 1000.9 |
| 20260510030609 | -17 | 157 | 0.0 | 0.0 | 0.00 | 0.00 | 0.00 | 93 | 1001.1 |
| 20260510030109 | -17 | 157 | 0.0 | 0.0 | 0.00 | 0.00 | 0.00 | 92 | 1001.0 |
| 20260510025608 | -17 | 157 | 0.0 | 0.0 | 0.00 | 0.00 | 0.00 | 92 | 1000.9 |
| 20260510025108 | -17 | 157 | 0.0 | 0.0 | 0.00 | 0.00 | 0.00 | 92 | 1000.9 |
| 20260510024608 | -17 | 157 | 0.0 | 0.0 | 0.00 | 0.00 | 0.00 | 92 | 1000.9 |
| 20260510024107 | -17 | 157 | 0.0 | 0.0 | 0.00 | 0.00 | 0.00 | 91 | 1000.7 |
| 20260510023607 | -17 | 157 | 0.0 | 0.0 | 0.00 | 0.00 | 0.00 | 91 | 1000.9 |
| 20260510023106 | -17 | 157 | 0.0 | 0.0 | 0.00 | 0.00 | 0.00 | 91 | 1001.1 |
| 20260510022601 | -17 | 157 | 0.0 | 0.0 | 0.00 | 0.00 | 0.00 | 91 | 1000.9 |
| 20260510022100 | -17 | 157 | 0.0 | 0.0 | 0.00 | 0.00 | 0.00 | 90 | 1001.0 |
| 20260510021600 | -17 | 157 | 0.0 | 0.0 | 0.00 | 0.00 | 0.00 | 90 | 1000.6 |
| 20260510021100 | -17 | 157 | 0.0 | 0.0 | 0.00 | 0.00 | 0.00 | 90 | 1000.7 |
| 20260510020559 | -17 | 157 | 0.0 | 0.0 | 0.00 | 0.00 | 0.00 | 90 | 1000.8 |
| 20260510020059 | -17 | 157 | 0.0 | 0.0 | 0.00 | 0.00 | 0.00 | 89 | 1000.6 |
| 20260510015559 | -17 | 157 | 0.0 | 0.0 | 0.00 | 0.00 | 0.00 | 89 | 1000.9 |
| 20260510015058 | -17 | 157 | 0.0 | 0.0 | 0.00 | 0.00 | 0.00 | 89 | 1000.6 |
| 20260510014558 | -17 | 157 | 0.0 | 0.0 | 0.00 | 0.00 | 0.00 | 88 | 1000.6 |
| 20260510014058 | -17 | 157 | 0.0 | 0.0 | 0.00 | 0.00 | 0.00 | 88 | 1000.4 |
| 20260510013557 | -17 | 157 | 0.0 | 0.0 | 0.00 | 0.00 | 0.00 | 88 | 1000.5 |
| 20260510013057 | -17 | 157 | 0.0 | 0.0 | 0.00 | 0.00 | 0.00 | 87 | 1000.1 |
| 20260510012557 | -17 | 157 | 0.0 | 0.0 | 0.00 | 0.00 | 0.00 | 86 | 1000.2 |
| 20260510012056 | -17 | 157 | 0.0 | 0.0 | 0.00 | 0.00 | 0.00 | 86 | 999.9 |
| 20260510011556 | -17 | 157 | 0.0 | 0.0 | 0.00 | 0.00 | 0.00 | 86 | 1000.0 |
| 20260510011056 | -17 | 157 | 0.0 | 0.0 | 0.00 | 0.00 | 0.00 | 85 | 999.8 |
| 20260510010555 | -17 | 157 | 0.0 | 0.0 | 0.00 | 0.00 | 0.00 | 84 | 999.9 |
| 20260510010055 | -17 | 157 | 0.0 | 0.0 | 0.00 | 0.00 | 0.00 | 84 | 999.8 |
| 20260510005555 | -17 | 157 | 0.0 | 0.0 | 0.00 | 0.00 | 0.00 | 83 | 999.8 |
| 20260510005054 | -17 | 157 | 0.0 | 0.0 | 0.00 | 0.00 | 0.00 | 82 | 999.8 |
| 20260510004554 | -17 | 157 | 0.0 | 0.0 | 0.00 | 0.00 | 0.00 | 82 | 999.9 |
| 20260510004053 | -17 | 157 | 0.0 | 0.0 | 0.00 | 0.00 | 0.00 | 81 | 999.8 |
| 20260510003553 | -17 | 157 | 0.0 | 0.0 | 0.00 | 0.00 | 0.00 | 80 | 999.6 |
| 20260510003052 | -17 | 157 | 0.0 | 0.0 | 0.00 | 0.00 | 0.00 | 79 | 999.6 |
| 20260510002552 | -17 | 157 | 0.0 | 0.0 | 0.00 | 0.00 | 0.00 | 79 | 999.7 |
| 20260510002051 | -17 | 157 | 0.0 | 0.0 | 0.00 | 0.00 | 0.00 | 78 | 999.8 |
| 20260510001551 | -17 | 157 | 0.0 | 0.0 | 0.00 | 0.00 | 0.00 | 77 | 999.8 |
| 20260510001051 | -17 | 157 | 0.0 | 0.0 | 0.00 | 0.00 | 0.00 | 77 | 999.6 |
| 20260510000550 | -17 | 157 | 0.0 | 0.0 | 0.00 | 0.00 | 0.00 | 76 | 999.5 |
| 20260510000046 | -17 | 157 | 0.0 | 0.0 | 0.00 | 0.00 | 0.00 | 76 | 999.5 |
| 20260509235545 | -17 | 157 | 0.0 | 0.0 | 0.00 | 0.00 | 0.00 | 75 | 999.5 |
| 20260509235044 | -17 | 157 | 0.0 | 0.0 | 0.00 | 0.00 | 0.00 | 75 | 999.3 |
| 20260509234544 | -17 | 157 | 0.0 | 0.0 | 0.00 | 0.00 | 0.00 | 74 | 999.5 |
| 20260509234044 | -17 | 157 | 0.0 | 0.0 | 0.00 | 0.00 | 0.00 | 74 | 999.2 |
| 20260509233544 | -17 | 157 | 0.0 | 0.0 | 0.00 | 0.00 | 0.00 | 73 | 999.0 |
| 20260509233043 | -17 | 157 | 0.0 | 0.0 | 0.00 | 0.00 | 0.00 | 73 | 999.2 |
| 20260509232543 | -17 | 157 | 0.0 | 0.0 | 0.00 | 0.00 | 0.00 | 72 | 999.0 |
| 20260509232042 | -17 | 157 | 0.0 | 0.0 | 0.00 | 0.00 | 0.00 | 72 | 999.4 |
| 20260509231541 | -17 | 162 | 0.0 | 0.0 | 0.00 | 0.00 | 0.00 | 72 | 999.2 |
| 20260509231041 | -17 | 162 | 0.0 | 0.0 | 0.00 | 0.00 | 0.00 | 71 | 998.9 |
| 20260509230040 | -17 | 162 | 0.0 | 0.0 | 0.00 | 0.00 | 0.00 | 71 | 999.0 |
| 20260509225540 | -17 | 162 | 0.0 | 0.0 | 0.00 | 0.00 | 0.00 | 70 | 999.0 |
| 20260509225040 | -17 | 162 | 0.0 | 0.0 | 0.00 | 0.00 | 0.00 | 70 | 998.8 |
| 20260509224539 | -17 | 162 | 0.0 | 0.0 | 0.00 | 0.00 | 0.00 | 69 | 998.6 |
| 20260509224039 | -17 | 162 | 0.0 | 0.0 | 0.00 | 0.00 | 0.00 | 70 | 998.7 |
| 20260509223539 | -17 | 163 | 0.0 | 0.0 | 0.00 | 0.00 | 0.00 | 70 | 998.7 |
| 20260509223038 | -17 | 162 | 0.0 | 0.0 | 0.00 | 0.00 | 0.00 | 70 | 998.9 |
| 20260509222538 | -17 | 162 | 0.0 | 0.0 | 0.00 | 0.00 | 0.00 | 70 | 998.9 |
| 20260509222038 | -17 | 162 | 1.6 | 1.6 | 0.00 | 0.00 | 0.00 | 70 | 998.8 |
| 20260509221537 | -17 | 170 | 0.0 | 0.0 | 0.00 | 0.00 | 0.00 | 69 | 998.9 |
| 20260509221037 | -17 | 171 | 0.0 | 1.6 | 0.00 | 0.00 | 0.00 | 70 | 998.9 |
| 20260509220537 | -17 | 174 | 0.0 | 0.0 | 0.00 | 0.00 | 0.00 | 70 | 998.9 |
| 20260509220036 | -17 | 175 | 0.0 | 0.0 | 0.00 | 0.00 | 0.00 | 67 | 998.8 |
| 20260509215536 | -17 | 174 | 0.0 | 0.0 | 0.00 | 0.00 | 0.00 | 68 | 998.8 |
| 20260509215036 | -17 | 166 | 0.0 | 0.0 | 0.00 | 0.00 | 0.00 | 68 | 999.1 |
| 20260509214035 | -17 | 164 | 4.8 | 6.4 | 0.00 | 0.00 | 0.00 | 67 | 998.9 |
| 20260509213535 | -17 | 166 | 1.6 | 1.6 | 0.00 | 0.00 | 0.00 | 68 | 998.9 |
| 20260509213034 | -17 | 177 | 0.0 | 0.0 | 0.00 | 0.00 | 0.00 | 67 | 999.0 |
| 20260509212533 | -17 | 175 | 0.0 | 0.0 | 0.00 | 0.00 | 0.00 | 68 | 998.8 |
| 20260509212033 | -17 | 172 | 3.2 | 3.2 | 0.00 | 0.00 | 0.00 | 66 | 998.7 |
| 20260509211532 | -17 | 172 | 1.6 | 1.6 | 0.00 | 0.00 | 0.00 | 66 | 998.8 |
| 20260509211032 | -17 | 172 | 1.6 | 1.6 | 0.00 | 0.00 | 0.00 | 65 | 998.5 |
| 20260509210531 | -17 | 165 | 0.0 | 0.0 | 0.00 | 0.00 | 0.00 | 65 | 998.5 |
| 20260509210031 | -17 | 195 | 0.0 | 0.0 | 0.00 | 0.00 | 0.00 | 65 | 998.6 |
| 20260509205530 | -17 | 146 | 0.0 | 0.0 | 0.00 | 0.00 | 0.00 | 67 | 998.7 |
| 20260509205029 | -17 | 168 | 0.0 | 0.0 | 0.00 | 0.00 | 0.00 | 66 | 998.6 |
| 20260509204529 | -17 | 136 | 0.0 | 0.0 | 0.00 | 0.00 | 0.00 | 67 | 998.8 |
| 20260509204027 | -17 | 176 | 0.0 | 1.6 | 0.00 | 0.00 | 0.00 | 67 | 998.8 |
| 20260509203527 | -17 | 174 | 0.0 | 1.6 | 0.00 | 0.00 | 0.00 | 68 | 998.7 |
| 20260509203027 | -17 | 186 | 0.0 | 0.0 | 0.00 | 0.00 | 0.00 | 68 | 998.7 |
| 20260509202526 | -17 | 173 | 0.0 | 1.6 | 0.00 | 0.00 | 0.00 | 67 | 998.8 |
| 20260509202026 | -17 | 176 | 1.6 | 1.6 | 0.00 | 0.00 | 0.00 | 67 | 998.6 |
| 20260509201526 | -17 | 142 | 0.0 | 0.0 | 0.00 | 0.00 | 0.00 | 66 | 999.0 |
| 20260509201026 | -17 | 163 | 1.6 | 1.6 | 0.00 | 0.00 | 0.00 | 67 | 998.8 |
| 20260509200525 | -17 | 165 | 3.2 | 4.8 | 0.00 | 0.00 | 0.00 | 67 | 998.7 |
| 20260509200025 | -17 | 150 | 0.0 | 0.0 | 0.00 | 0.00 | 0.00 | 69 | 998.6 |
| 20260509195525 | -17 | 126 | 0.0 | 1.6 | 0.00 | 0.00 | 0.00 | 70 | 998.9 |
| 20260509195024 | -17 | 168 | 0.0 | 0.0 | 0.00 | 0.00 | 0.00 | 70 | 999.1 |
| 20260509194524 | -17 | 177 | 0.0 | 0.0 | 0.00 | 0.00 | 0.00 | 69 | 999.1 |
| 20260509194024 | -17 | 159 | 0.0 | 1.6 | 0.00 | 0.00 | 0.00 | 67 | 999.1 |
| 20260509193523 | -17 | 171 | 1.6 | 1.6 | 0.00 | 0.00 | 0.00 | 68 | 999.1 |
| 20260509193023 | -17 | 173 | 0.0 | 0.0 | 0.00 | 0.00 | 0.00 | 67 | 999.2 |
| 20260509192523 | -17 | 169 | 1.6 | 1.6 | 0.00 | 0.00 | 0.00 | 66 | 999.2 |
| 20260509192022 | -17 | 177 | 0.0 | 0.0 | 0.00 | 0.00 | 0.00 | 66 | 999.2 |
| 20260509191522 | -17 | 167 | 0.0 | 0.0 | 0.00 | 0.00 | 0.00 | 65 | 999.5 |
| 20260509191021 | -17 | 172 | 0.0 | 0.0 | 0.00 | 0.00 | 0.00 | 64 | 999.3 |
| 20260509190521 | -17 | 170 | 1.6 | 3.2 | 0.00 | 0.00 | 0.00 | 65 | 999.4 |
| 20260509190021 | -17 | 179 | 0.0 | 1.6 | 0.00 | 0.00 | 0.00 | 63 | 999.6 |
| 20260509185521 | -17 | 99 | 0.0 | 1.6 | 0.00 | 0.00 | 0.00 | 63 | 999.4 |
| 20260509185020 | -17 | 149 | 0.0 | 0.0 | 0.00 | 0.00 | 0.00 | 60 | 999.3 |
| 20260509184520 | -17 | 157 | 0.0 | 0.0 | 0.00 | 0.00 | 0.00 | 60 | 999.4 |
| 20260509184020 | -17 | 201 | 0.0 | 1.6 | 0.00 | 0.00 | 0.00 | 59 | 999.3 |
| 20260509183519 | -17 | 162 | 4.8 | 6.4 | 0.00 | 0.00 | 0.00 | 57 | 999.3 |
| 20260509183019 | -17 | 195 | 0.0 | 0.0 | 0.00 | 0.00 | 0.00 | 57 | 999.4 |
| 20260509182518 | -17 | 233 | 0.0 | 1.6 | 0.00 | 0.00 | 0.00 | 58 | 999.4 |
| 20260509182018 | -17 | 153 | 0.0 | 0.0 | 0.00 | 0.00 | 0.00 | 59 | 999.5 |
| 20260509181518 | -17 | 165 | 3.2 | 4.8 | 0.00 | 0.00 | 0.00 | 59 | 999.4 |
| 20260509180503 | -17 | 176 | 0.0 | 0.0 | 0.00 | 0.00 | 0.00 | 56 | 999.8 |
| 20260509180002 | -17 | 159 | 0.0 | 0.0 | 0.00 | 0.00 | 0.00 | 57 | 999.9 |
| 20260509175502 | -17 | 153 | 0.0 | 0.0 | 0.00 | 0.00 | 0.00 | 56 | 1000.1 |
| 20260509175001 | -17 | 173 | 0.0 | 0.0 | 0.00 | 0.00 | 0.00 | 57 | 1000.3 |
| 20260509174501 | -17 | 169 | 0.0 | 1.6 | 0.00 | 0.00 | 0.00 | 55 | 1000.1 |
| 20260509174001 | -17 | 196 | 0.0 | 0.0 | 0.00 | 0.00 | 0.00 | 56 | 1000.4 |
| 20260509173500 | -17 | 188 | 0.0 | 0.0 | 0.00 | 0.00 | 0.00 | 55 | 1000.3 |
| 20260509173000 | -17 | 140 | 3.2 | 4.8 | 0.00 | 0.00 | 0.00 | 54 | 1000.2 |
| 20260509172500 | -17 | 160 | 0.0 | 1.6 | 0.00 | 0.00 | 0.00 | 55 | 1000.2 |
| 20260509171959 | -17 | 186 | 0.0 | 1.6 | 0.00 | 0.00 | 0.00 | 55 | 1000.3 |
| 20260509171459 | -17 | 156 | 0.0 | 0.0 | 0.00 | 0.00 | 0.00 | 56 | 1000.4 |
| 20260509170959 | -17 | 187 | 1.6 | 3.2 | 0.00 | 0.00 | 0.00 | 54 | 1000.4 |
| 20260509170458 | -17 | 138 | 0.0 | 1.6 | 0.00 | 0.00 | 0.00 | 56 | 1000.5 |
| 20260509165958 | -17 | 188 | 3.2 | 3.2 | 0.00 | 0.00 | 0.00 | 56 | 1000.8 |
| 20260509165458 | -17 | 148 | 0.0 | 0.0 | 0.00 | 0.00 | 0.00 | 57 | 1000.7 |
| 20260509164957 | -17 | 170 | 0.0 | 0.0 | 0.00 | 0.00 | 0.00 | 56 | 1001.0 |
| 20260509164457 | -17 | 160 | 0.0 | 0.0 | 0.00 | 0.00 | 0.00 | 60 | 1000.9 |
| 20260509163957 | -17 | 181 | 1.6 | 1.6 | 0.00 | 0.00 | 0.00 | 61 | 1000.8 |
| 20260509163456 | -17 | 149 | 0.0 | 0.0 | 0.00 | 0.00 | 0.00 | 58 | 1000.7 |
| 20260509162956 | -17 | 178 | 0.0 | 0.0 | 0.00 | 0.00 | 0.00 | 59 | 1000.8 |